Weather History for Milwaukee, WI

Change the Weather History Date:

Wednesday, December 5, 2012

  Actual Average Record
Temperature  
Mean Temperature 30 °F 30 °F  
Max Temperature 36 °F 36 °F 68 °F (2001)
Min Temperature 24 °F 23 °F -14 °F (1871)
Degree Days  
Heating Degree Days 35 35  
Month to date heating degree days 99 171  
Since 1 July heating degree days 1471 1536  
Cooling Degree Days 0 0  
Month to date cooling degree days 0 0  
Year to date cooling degree days 1041 641  
Moisture  
Dew Point 22 °F    
Average Humidity 68    
Maximum Humidity 82    
Minimum Humidity 53    
Precipitation  
Precipitation 0.00 in 0.07 in 0.78 in (1982)
Month to date precipitation 0.30 0.39  
Year to date precipitation 25.72 33.11  
Snow  
Snow 0.00 in 0.30 in 4.80 in (1926)
Month to date snowfall 0.0 1.4  
Since 1 July snowfall T 4.1  
Snow Depth 0.00 in    
Sea Level Pressure  
Sea Level Pressure 30.38 in    
Wind  
Wind Speed 7 mph (East)    
Max Wind Speed 13 mph    
Max Gust Speed 18 mph    
Visibility 10 miles    
Events      
T = Trace of Precipitation, MM = Missing Value Source: NWS Daily Summary

Daily Weather History Graph

Daily Weather History Graph

Search for Another Location

Airport:

Trip Planner

Search our weather history database for the weather conditions in past years. The results will help you decide how hot, cold, wet, or windy it might be!

Date:

Astronomy

Dec. 05, 2012 Rise Set
Actual Time 7:07 AM CST 4:17 PM CST
Civil Twilight 6:35 AM CST 4:49 PM CST
Nautical Twilight 6:00 AM CST 5:24 PM CST
Astronomical Twilight 5:25 AM CST 5:58 PM CST
Moon 11:14 PM CST (12/5) 11:24 AM CST (12/5)
Length of Visible Light 10h 13m
Length of Day
9h 09m
Waning Gibbous, 59% of the Moon is Illuminated
Dec 5
Waning Gibbous
Dec 6
Last Quarter
Dec 13
New
Dec 19
First Quarter
Dec 28
Full

Hourly Weather History & Observations

Time (CST) Temp. Windchill Dew Point Humidity Pressure Visibility Wind Dir Wind Speed Gust Speed Precip Events Conditions
12:52 AM 28.9 °F 19.8 °F 15.1 °F 56% 30.35 in 10.0 mi NW 10.4 mph - N/A   Partly Cloudy
1:52 AM 28.0 °F 21.7 °F 14.0 °F 56% 30.38 in 10.0 mi NNW 5.8 mph - N/A   Clear
2:52 AM 27.0 °F 17.3 °F 14.0 °F 58% 30.40 in 10.0 mi NNW 10.4 mph - N/A   Partly Cloudy
3:52 AM 26.1 °F 16.8 °F 14.0 °F 60% 30.41 in 10.0 mi NNW 9.2 mph - N/A   Partly Cloudy
4:52 AM 25.0 °F 18.1 °F 12.9 °F 60% 30.41 in 10.0 mi NNW 5.8 mph - N/A   Partly Cloudy
5:52 AM 25.0 °F 18.1 °F 12.9 °F 60% 30.43 in 10.0 mi NNW 5.8 mph - N/A   Partly Cloudy
6:52 AM 25.0 °F 16.3 °F 14.0 °F 63% 30.45 in 10.0 mi NNW 8.1 mph - N/A   Scattered Clouds
8:52 AM 28.9 °F 22.8 °F 18.0 °F 64% 30.46 in 10.0 mi North 5.8 mph - N/A   Mostly Cloudy
9:28 AM 30.2 °F 22.6 °F 21.2 °F 69% 30.43 in 10.0 mi NE 8.1 mph - N/A   Mostly Cloudy
9:52 AM 32.0 °F 23.6 °F 21.9 °F 66% 30.47 in 10.0 mi NE 10.4 mph - N/A   Mostly Cloudy
10:52 AM 33.1 °F 26.1 °F 23.0 °F 66% 30.47 in 10.0 mi ENE 8.1 mph - N/A   Mostly Cloudy
11:52 AM 34.0 °F 31.0 °F 24.1 °F 67% 30.45 in 10.0 mi ESE 3.5 mph - N/A   Mostly Cloudy
12:52 PM 34.0 °F 28.0 °F 24.1 °F 67% 30.41 in 10.0 mi East 6.9 mph - N/A   Mostly Cloudy
1:52 PM 34.0 °F 31.0 °F 25.0 °F 70% 30.40 in 10.0 mi East 3.5 mph - N/A   Mostly Cloudy
2:52 PM 35.1 °F 30.1 °F 25.0 °F 67% 30.40 in 10.0 mi ESE 5.8 mph - N/A   Mostly Cloudy
3:52 PM 34.0 °F 26.6 °F 25.0 °F 70% 30.39 in 10.0 mi East 9.2 mph - N/A   Mostly Cloudy
4:52 PM 33.1 °F 26.9 °F 25.0 °F 72% 30.38 in 10.0 mi SE 6.9 mph - N/A   Mostly Cloudy
5:52 PM 33.1 °F 27.7 °F 25.0 °F 72% 30.36 in 10.0 mi South 5.8 mph - N/A   Mostly Cloudy
6:36 PM 32.0 °F 25.6 °F 24.8 °F 75% 30.32 in 10.0 mi South 6.9 mph - N/A   Scattered Clouds
6:52 PM 30.9 °F 26.2 °F 25.0 °F 79% 30.34 in 10.0 mi SSE 4.6 mph - N/A   Partly Cloudy
7:52 PM 32.0 °F 26.4 °F 25.0 °F 75% 30.33 in 10.0 mi SSE 5.8 mph - N/A   Partly Cloudy
8:52 PM 32.0 °F 24.8 °F 26.1 °F 79% 30.30 in 10.0 mi SSE 8.1 mph - N/A   Partly Cloudy
9:52 PM 34.0 °F 28.8 °F 28.0 °F 79% 30.26 in 10.0 mi South 5.8 mph - N/A   Mostly Cloudy
10:52 PM 33.1 °F 30.0 °F 28.0 °F 82% 30.25 in 10.0 mi South 3.5 mph - N/A   Mostly Cloudy
11:52 PM 33.1 °F 27.7 °F 28.0 °F 82% 30.24 in 10.0 mi SSW 5.8 mph - N/A   Mostly Cloudy